Time,TemperatureF,DewpointF,PressureIn,WindDirection,WindDirectionDegrees,WindSpeedMPH,WindSpeedGustMPH,Humidity,HourlyPrecipIn,Conditions,Clouds,dailyrainin,SoftwareType,DateUTC
2013-01-20 00:00:00,30.0,29.0,29.53,West,270,0.0,0.0,97,0.00,,,0.00,Rainwise IP-100,2013-01-20 05:00:00,
2013-01-20 00:05:00,30.0,29.0,29.52,West,270,0.0,0.0,97,0.00,,,0.00,Rainwise IP-100,2013-01-20 05:05:00,
2013-01-20 00:10:00,30.0,29.0,29.52,West,270,0.0,0.0,97,0.00,,,0.00,Rainwise IP-100,2013-01-20 05:10:00,
2013-01-20 00:15:00,30.0,29.0,29.51,West,270,0.0,0.0,97,0.00,,,0.00,Rainwise IP-100,2013-01-20 05:15:00,
2013-01-20 00:20:00,30.0,31.0,29.51,West,270,0.0,0.0,98,0.00,,,0.00,Rainwise IP-100,2013-01-20 05:20:00,
2013-01-20 00:25:00,30.0,31.0,29.51,West,270,0.0,2.0,98,0.00,,,0.00,Rainwise IP-100,2013-01-20 05:25:00,
2013-01-20 00:30:00,29.0,29.0,29.51,West,270,0.0,3.0,98,0.00,,,0.00,Rainwise IP-100,2013-01-20 05:30:00,
2013-01-20 00:35:00,29.0,29.0,29.50,West,270,0.0,1.0,98,0.00,,,0.00,Rainwise IP-100,2013-01-20 05:35:00,
2013-01-20 00:40:00,29.0,29.0,29.50,West,270,0.0,0.0,98,0.00,,,0.00,Rainwise IP-100,2013-01-20 05:40:00,
2013-01-20 00:45:00,30.0,31.0,29.49,SW,225,0.0,3.0,98,0.00,,,0.00,Rainwise IP-100,2013-01-20 05:45:00,
2013-01-20 00:50:00,30.0,31.0,29.49,SSW,202,2.0,3.0,98,0.00,,,0.00,Rainwise IP-100,2013-01-20 05:50:00,
2013-01-20 00:55:00,30.0,31.0,29.49,SSW,202,0.0,4.0,98,0.00,,,0.00,Rainwise IP-100,2013-01-20 05:55:00,
2013-01-20 01:00:00,30.0,31.0,29.49,ESE,112,3.0,4.0,100,0.00,,,0.00,Rainwise IP-100,2013-01-20 06:00:00,
2013-01-20 01:05:00,30.0,31.0,29.49,East,90,3.0,4.0,100,0.00,,,0.00,Rainwise IP-100,2013-01-20 06:05:00,
2013-01-20 01:10:00,31.0,31.0,29.49,East,90,3.0,5.0,98,0.00,,,0.00,Rainwise IP-100,2013-01-20 06:10:00,
2013-01-20 01:15:00,32.0,31.0,29.49,SSE,157,3.0,4.0,97,0.00,,,0.00,Rainwise IP-100,2013-01-20 06:15:00,
2013-01-20 01:20:00,32.0,31.0,29.49,South,180,2.0,4.0,97,0.00,,,0.00,Rainwise IP-100,2013-01-20 06:20:00,
2013-01-20 01:25:00,31.0,29.0,29.49,South,180,1.0,4.0,97,0.00,,,0.00,Rainwise IP-100,2013-01-20 06:25:00,
2013-01-20 01:30:00,30.0,31.0,29.49,South,180,0.0,3.0,98,0.00,,,0.00,Rainwise IP-100,2013-01-20 06:30:00,
2013-01-20 01:31:00,31.0,29.0,29.48,South,180,2.0,2.0,96,0.00,,,0.00,Rainwise IP-100,2013-01-20 06:31:00,
2013-01-20 01:36:00,30.0,31.0,29.48,South,180,3.0,3.0,98,0.00,,,0.00,Rainwise IP-100,2013-01-20 06:36:00,
2013-01-20 01:41:00,31.0,29.0,29.48,SSE,157,1.0,3.0,97,0.00,,,0.00,Rainwise IP-100,2013-01-20 06:41:00,
2013-01-20 01:46:00,30.0,31.0,29.48,SSE,157,1.0,3.0,98,0.00,,,0.00,Rainwise IP-100,2013-01-20 06:46:00,
2013-01-20 01:51:00,31.0,29.0,29.48,SSE,157,3.0,3.0,97,0.00,,,0.00,Rainwise IP-100,2013-01-20 06:51:00,
2013-01-20 01:56:00,30.0,31.0,29.48,SSE,157,3.0,3.0,99,0.00,,,0.00,Rainwise IP-100,2013-01-20 06:56:00,
2013-01-20 02:01:00,31.0,29.0,29.48,SSE,157,3.0,4.0,97,0.00,,,0.00,Rainwise IP-100,2013-01-20 07:01:00,
2013-01-20 02:06:00,31.0,31.0,29.48,SSE,157,2.0,4.0,99,0.00,,,0.00,Rainwise IP-100,2013-01-20 07:06:00,
2013-01-20 02:11:00,31.0,31.0,29.47,SSE,157,0.0,4.0,98,0.00,,,0.00,Rainwise IP-100,2013-01-20 07:11:00,
2013-01-20 02:16:00,31.0,31.0,29.47,SSE,157,2.0,3.0,99,0.00,,,0.00,Rainwise IP-100,2013-01-20 07:16:00,
2013-01-20 02:21:00,31.0,31.0,29.47,SSE,157,3.0,5.0,98,0.00,,,0.00,Rainwise IP-100,2013-01-20 07:21:00,
2013-01-20 02:26:00,31.0,31.0,29.47,South,180,3.0,3.0,99,0.00,,,0.00,Rainwise IP-100,2013-01-20 07:26:00,
2013-01-20 02:31:00,31.0,31.0,29.47,South,180,3.0,4.0,98,0.00,,,0.00,Rainwise IP-100,2013-01-20 07:31:00,
2013-01-20 02:36:00,31.0,31.0,29.47,SSW,202,0.0,4.0,99,0.00,,,0.00,Rainwise IP-100,2013-01-20 07:36:00,
2013-01-20 02:41:00,31.0,31.0,29.46,SSW,202,0.0,1.0,98,0.00,,,0.00,Rainwise IP-100,2013-01-20 07:41:00,
2013-01-20 02:46:00,31.0,31.0,29.46,SSW,202,0.0,0.0,99,0.00,,,0.00,Rainwise IP-100,2013-01-20 07:46:00,
2013-01-20 02:51:00,31.0,31.0,29.46,SSW,202,0.0,3.0,99,0.00,,,0.00,Rainwise IP-100,2013-01-20 07:51:00,
2013-01-20 02:56:00,31.0,31.0,29.45,SSW,202,2.0,4.0,99,0.00,,,0.00,Rainwise IP-100,2013-01-20 07:56:00,
2013-01-20 03:01:00,31.0,31.0,29.43,SSW,202,0.0,4.0,99,0.00,,,0.00,Rainwise IP-100,2013-01-20 08:01:00,
2013-01-20 03:06:00,31.0,31.0,29.43,SSW,202,0.0,4.0,99,0.00,,,0.00,Rainwise IP-100,2013-01-20 08:06:00,
2013-01-20 03:11:00,31.0,31.0,29.43,SSW,202,0.0,2.0,99,0.00,,,0.00,Rainwise IP-100,2013-01-20 08:11:00,
2013-01-20 03:16:00,31.0,31.0,29.43,SSW,202,0.0,0.0,99,0.00,,,0.00,Rainwise IP-100,2013-01-20 08:16:00,
2013-01-20 03:21:00,31.0,31.0,29.41,SSW,202,0.0,0.0,99,0.00,,,0.00,Rainwise IP-100,2013-01-20 08:21:00,
2013-01-20 03:26:00,31.0,31.0,29.41,SSW,202,0.0,2.0,99,0.00,,,0.00,Rainwise IP-100,2013-01-20 08:26:00,
2013-01-20 03:31:00,31.0,31.0,29.40,East,90,3.0,3.0,99,0.00,,,0.00,Rainwise IP-100,2013-01-20 08:31:00,
2013-01-20 03:36:00,31.0,31.0,29.40,East,90,0.0,3.0,99,0.00,,,0.00,Rainwise IP-100,2013-01-20 08:36:00,
2013-01-20 03:41:00,31.0,31.0,29.39,East,90,0.0,0.0,99,0.00,,,0.00,Rainwise IP-100,2013-01-20 08:41:00,
2013-01-20 03:46:00,31.0,31.0,29.39,East,90,0.0,0.0,100,0.00,,,0.00,Rainwise IP-100,2013-01-20 08:46:00,
2013-01-20 03:51:00,31.0,31.0,29.39,East,90,3.0,0.0,99,0.00,,,0.00,Rainwise IP-100,2013-01-20 08:51:00,
2013-01-20 03:53:00,31.0,31.0,29.39,East,90,2.0,3.0,99,0.00,,,0.00,Rainwise IP-100,2013-01-20 08:53:00,
2013-01-20 03:54:00,31.0,31.0,29.39,East,90,3.0,3.0,99,0.00,,,0.00,Rainwise IP-100,2013-01-20 08:54:00,
2013-01-20 03:57:00,31.0,31.0,29.39,East,90,0.0,3.0,100,0.00,,,0.00,Rainwise IP-100,2013-01-20 08:57:00,
2013-01-20 03:58:00,31.0,31.0,29.39,East,90,0.0,3.0,100,0.00,,,0.00,Rainwise IP-100,2013-01-20 08:58:00,
2013-01-20 04:01:00,31.0,31.0,29.39,East,90,0.0,3.0,100,0.00,,,0.00,Rainwise IP-100,2013-01-20 09:01:00,
2013-01-20 04:03:00,31.0,31.0,29.39,East,90,1.0,2.0,100,0.00,,,0.00,Rainwise IP-100,2013-01-20 09:03:00,
2013-01-20 04:06:00,32.0,32.0,29.38,East,90,0.0,2.0,100,0.00,,,0.00,Rainwise IP-100,2013-01-20 09:06:00,
2013-01-20 04:08:00,32.0,32.0,29.38,East,90,0.0,2.0,100,0.00,,,0.00,Rainwise IP-100,2013-01-20 09:08:00,
2013-01-20 04:09:00,32.0,32.0,29.38,East,90,0.0,2.0,100,0.00,,,0.00,Rainwise IP-100,2013-01-20 09:09:00,
2013-01-20 04:12:00,32.0,32.0,29.38,East,90,0.0,0.0,100,0.00,,,0.00,Rainwise IP-100,2013-01-20 09:12:00,
2013-01-20 04:17:00,32.0,32.0,29.38,East,90,0.0,2.0,100,0.00,,,0.00,Rainwise IP-100,2013-01-20 09:17:00,
2013-01-20 04:22:00,32.0,32.0,29.37,East,90,0.0,0.0,100,0.00,,,0.00,Rainwise IP-100,2013-01-20 09:22:00,
2013-01-20 04:27:00,32.0,32.0,29.37,East,90,0.0,2.0,100,0.00,,,0.00,Rainwise IP-100,2013-01-20 09:27:00,
2013-01-20 04:32:00,32.0,32.0,29.36,East,90,1.0,1.0,100,0.00,,,0.00,Rainwise IP-100,2013-01-20 09:32:00,
2013-01-20 04:37:00,32.0,32.0,29.36,East,90,0.0,2.0,100,0.00,,,0.00,Rainwise IP-100,2013-01-20 09:37:00,
2013-01-20 04:42:00,32.0,32.0,29.37,East,90,0.0,0.0,100,0.00,,,0.00,Rainwise IP-100,2013-01-20 09:42:00,
2013-01-20 04:47:00,33.0,33.0,29.37,NE,45,4.0,4.0,100,0.00,,,0.00,Rainwise IP-100,2013-01-20 09:47:00,
2013-01-20 04:52:00,33.0,33.0,29.35,North,360,0.0,4.0,100,0.00,,,0.00,Rainwise IP-100,2013-01-20 09:52:00,
2013-01-20 04:57:00,33.0,33.0,29.35,North,360,0.0,0.0,100,0.00,,,0.00,Rainwise IP-100,2013-01-20 09:57:00,
2013-01-20 05:02:00,33.0,33.0,29.34,North,360,0.0,0.0,100,0.00,,,0.00,Rainwise IP-100,2013-01-20 10:02:00,
2013-01-20 05:07:00,32.0,32.0,29.34,North,360,0.0,0.0,100,0.00,,,0.00,Rainwise IP-100,2013-01-20 10:07:00,
2013-01-20 05:12:00,32.0,32.0,29.34,North,360,2.0,3.0,100,0.00,,,0.00,Rainwise IP-100,2013-01-20 10:12:00,
2013-01-20 05:17:00,32.0,32.0,29.34,North,360,3.0,4.0,100,0.00,,,0.00,Rainwise IP-100,2013-01-20 10:17:00,
2013-01-20 05:22:00,33.0,33.0,29.34,ENE,67,2.0,5.0,100,0.00,,,0.00,Rainwise IP-100,2013-01-20 10:22:00,
2013-01-20 05:27:00,34.0,35.0,29.34,ENE,67,0.0,3.0,100,0.00,,,0.00,Rainwise IP-100,2013-01-20 10:27:00,
2013-01-20 05:32:00,34.0,35.0,29.34,ENE,67,0.0,2.0,100,0.00,,,0.00,Rainwise IP-100,2013-01-20 10:32:00,
2013-01-20 05:37:00,34.0,35.0,29.34,ENE,67,0.0,3.0,100,0.00,,,0.00,Rainwise IP-100,2013-01-20 10:37:00,
2013-01-20 05:42:00,33.0,33.0,29.33,ENE,67,0.0,3.0,100,0.00,,,0.00,Rainwise IP-100,2013-01-20 10:42:00,
2013-01-20 05:47:00,32.0,32.0,29.33,ESE,112,4.0,4.0,100,0.00,,,0.00,Rainwise IP-100,2013-01-20 10:47:00,
2013-01-20 05:52:00,32.0,32.0,29.31,SW,225,4.0,4.0,100,0.00,,,0.00,Rainwise IP-100,2013-01-20 10:52:00,
2013-01-20 05:57:00,31.0,31.0,29.31,SSW,202,0.0,4.0,100,0.00,,,0.00,Rainwise IP-100,2013-01-20 10:57:00,
2013-01-20 06:02:00,31.0,31.0,29.31,West,270,2.0,4.0,100,0.00,,,0.00,Rainwise IP-100,2013-01-20 11:02:00,
2013-01-20 06:07:00,32.0,32.0,29.31,North,360,3.0,4.0,100,0.00,,,0.00,Rainwise IP-100,2013-01-20 11:07:00,
2013-01-20 06:12:00,34.0,35.0,29.30,NE,45,3.0,4.0,100,0.00,,,0.00,Rainwise IP-100,2013-01-20 11:12:00,
2013-01-20 06:17:00,35.0,35.0,29.30,ENE,67,1.0,4.0,100,0.00,,,0.00,Rainwise IP-100,2013-01-20 11:17:00,
2013-01-20 06:22:00,35.0,35.0,29.30,ENE,67,2.0,3.0,100,0.00,,,0.00,Rainwise IP-100,2013-01-20 11:22:00,
2013-01-20 06:27:00,35.0,35.0,29.30,ENE,67,0.0,3.0,100,0.00,,,0.00,Rainwise IP-100,2013-01-20 11:27:00,
2013-01-20 06:32:00,35.0,35.0,29.30,ENE,67,0.0,1.0,100,0.00,,,0.00,Rainwise IP-100,2013-01-20 11:32:00,
2013-01-20 06:37:00,35.0,35.0,29.30,ENE,67,0.0,3.0,100,0.00,,,0.00,Rainwise IP-100,2013-01-20 11:37:00,
2013-01-20 06:42:00,34.0,35.0,29.28,ENE,67,1.0,3.0,100,0.00,,,0.00,Rainwise IP-100,2013-01-20 11:42:00,
2013-01-20 06:47:00,34.0,35.0,29.28,NE,45,4.0,4.0,100,0.00,,,0.00,Rainwise IP-100,2013-01-20 11:47:00,
2013-01-20 06:52:00,35.0,35.0,29.28,NE,45,2.0,4.0,100,0.00,,,0.00,Rainwise IP-100,2013-01-20 11:52:00,
2013-01-20 06:57:00,35.0,35.0,29.28,NE,45,4.0,4.0,100,0.00,,,0.00,Rainwise IP-100,2013-01-20 11:57:00,
2013-01-20 07:02:00,35.0,35.0,29.26,ENE,67,3.0,5.0,100,0.00,,,0.00,Rainwise IP-100,2013-01-20 12:02:00,
2013-01-20 07:07:00,34.0,35.0,29.26,ENE,67,2.0,3.0,100,0.00,,,0.00,Rainwise IP-100,2013-01-20 12:07:00,
2013-01-20 07:12:00,33.0,33.0,29.25,South,180,3.0,4.0,100,0.00,,,0.00,Rainwise IP-100,2013-01-20 12:12:00,
2013-01-20 07:17:00,32.0,32.0,29.25,South,180,0.0,3.0,100,0.00,,,0.00,Rainwise IP-100,2013-01-20 12:17:00,
2013-01-20 07:22:00,31.0,31.0,29.24,NE,45,4.0,0.0,100,0.00,,,0.00,Rainwise IP-100,2013-01-20 12:22:00,
2013-01-20 07:27:00,34.0,35.0,29.24,East,90,4.0,5.0,100,0.00,,,0.00,Rainwise IP-100,2013-01-20 12:27:00,
2013-01-20 07:32:00,36.0,36.0,29.23,East,90,2.0,6.0,100,0.00,,,0.00,Rainwise IP-100,2013-01-20 12:32:00,
2013-01-20 07:37:00,36.0,36.0,29.23,East,90,3.0,4.0,100,0.00,,,0.00,Rainwise IP-100,2013-01-20 12:37:00,
2013-01-20 07:42:00,37.0,37.0,29.22,East,90,4.0,5.0,100,0.00,,,0.00,Rainwise IP-100,2013-01-20 12:42:00,
2013-01-20 07:47:00,37.0,37.0,29.22,ENE,67,3.0,5.0,100,0.00,,,0.00,Rainwise IP-100,2013-01-20 12:47:00,
2013-01-20 07:52:00,38.0,38.0,29.23,ENE,67,3.0,5.0,100,0.00,,,0.00,Rainwise IP-100,2013-01-20 12:52:00,
2013-01-20 07:57:00,38.0,38.0,29.23,ENE,67,4.0,4.0,100,0.00,,,0.00,Rainwise IP-100,2013-01-20 12:57:00,
2013-01-20 08:02:00,39.0,39.0,29.22,ESE,112,3.0,6.0,100,0.00,,,0.00,Rainwise IP-100,2013-01-20 13:02:00,
2013-01-20 08:07:00,39.0,39.0,29.22,SE,135,3.0,5.0,100,0.00,,,0.01,Rainwise IP-100,2013-01-20 13:07:00,
2013-01-20 08:12:00,40.0,40.0,29.21,SE,135,5.0,8.0,100,0.06,,,0.01,Rainwise IP-100,2013-01-20 13:12:00,
2013-01-20 08:17:00,40.0,40.0,29.21,South,180,0.0,10.0,100,0.06,,,0.02,Rainwise IP-100,2013-01-20 13:17:00,
2013-01-20 08:22:00,41.0,41.0,29.21,SE,135,5.0,7.0,99,0.06,,,0.02,Rainwise IP-100,2013-01-20 13:22:00,
2013-01-20 08:27:00,41.0,41.0,29.21,SSE,157,3.0,8.0,99,0.06,,,0.02,Rainwise IP-100,2013-01-20 13:27:00,
2013-01-20 08:30:00,41.0,41.0,29.21,ESE,112,6.0,8.0,99,0.00,,,0.02,Rainwise IP-100,2013-01-20 13:30:00,
2013-01-20 08:35:00,42.0,41.0,29.20,WSW,247,7.0,11.0,98,0.06,,,0.03,Rainwise IP-100,2013-01-20 13:35:00,
2013-01-20 08:40:00,43.0,42.0,29.20,SSW,202,9.0,14.0,96,0.06,,,0.03,Rainwise IP-100,2013-01-20 13:40:00,
2013-01-20 08:45:00,44.0,42.0,29.20,SW,225,10.0,14.0,93,0.06,,,0.04,Rainwise IP-100,2013-01-20 13:45:00,
2013-01-20 08:50:00,44.0,41.0,29.20,SW,225,8.0,19.0,89,0.06,,,0.04,Rainwise IP-100,2013-01-20 13:50:00,
2013-01-20 08:55:00,45.0,41.0,29.21,SW,225,8.0,15.0,87,0.00,,,0.04,Rainwise IP-100,2013-01-20 13:55:00,
2013-01-20 09:00:00,45.0,40.0,29.21,SSW,202,3.0,19.0,84,0.00,,,0.04,Rainwise IP-100,2013-01-20 14:00:00,
2013-01-20 09:05:00,45.0,40.0,29.19,SW,225,12.0,16.0,83,0.00,,,0.04,Rainwise IP-100,2013-01-20 14:05:00,
2013-01-20 09:10:00,45.0,40.0,29.19,West,270,12.0,19.0,83,0.00,,,0.04,Rainwise IP-100,2013-01-20 14:10:00,
2013-01-20 09:15:00,45.0,39.0,29.19,SW,225,7.0,19.0,81,0.00,,,0.04,Rainwise IP-100,2013-01-20 14:15:00,
2013-01-20 09:20:00,46.0,40.0,29.19,SW,225,7.0,18.0,81,0.00,,,0.04,Rainwise IP-100,2013-01-20 14:20:00,
2013-01-20 09:25:00,46.0,40.0,29.19,West,270,8.0,21.0,80,0.00,,,0.04,Rainwise IP-100,2013-01-20 14:25:00,
2013-01-20 09:30:00,46.0,39.0,29.19,WSW,247,5.0,20.0,79,0.00,,,0.04,Rainwise IP-100,2013-01-20 14:30:00,
2013-01-20 09:35:00,46.0,39.0,29.19,SW,225,10.0,21.0,78,0.06,,,0.05,Rainwise IP-100,2013-01-20 14:35:00,
2013-01-20 09:40:00,46.0,39.0,29.19,SW,225,7.0,19.0,77,0.06,,,0.05,Rainwise IP-100,2013-01-20 14:40:00,
2013-01-20 09:45:00,46.0,39.0,29.19,WSW,247,10.0,27.0,78,0.00,,,0.05,Rainwise IP-100,2013-01-20 14:45:00,
2013-01-20 09:50:00,46.0,39.0,29.19,WSW,247,12.0,28.0,77,0.00,,,0.05,Rainwise IP-100,2013-01-20 14:50:00,
2013-01-20 09:55:00,46.0,39.0,29.17,WSW,247,11.0,21.0,77,0.00,,,0.05,Rainwise IP-100,2013-01-20 14:55:00,
2013-01-20 10:00:00,46.0,39.0,29.17,SSW,202,12.0,24.0,77,0.00,,,0.05,Rainwise IP-100,2013-01-20 15:00:00,
2013-01-20 10:05:00,46.0,39.0,29.17,SW,225,17.0,32.0,76,0.00,,,0.05,Rainwise IP-100,2013-01-20 15:05:00,
2013-01-20 10:10:00,46.0,39.0,29.17,South,180,12.0,29.0,77,0.00,,,0.05,Rainwise IP-100,2013-01-20 15:10:00,
2013-01-20 10:15:00,46.0,39.0,29.16,SW,225,16.0,22.0,77,0.00,,,0.05,Rainwise IP-100,2013-01-20 15:15:00,
2013-01-20 10:20:00,46.0,39.0,29.16,South,180,6.0,25.0,76,0.00,,,0.05,Rainwise IP-100,2013-01-20 15:20:00,
2013-01-20 10:25:00,46.0,39.0,29.15,West,270,12.0,27.0,76,0.00,,,0.05,Rainwise IP-100,2013-01-20 15:25:00,
2013-01-20 10:30:00,46.0,39.0,29.15,WSW,247,10.0,19.0,76,0.00,,,0.05,Rainwise IP-100,2013-01-20 15:30:00,
2013-01-20 10:35:00,46.0,38.0,29.15,WSW,247,5.0,24.0,75,0.00,,,0.05,Rainwise IP-100,2013-01-20 15:35:00,
2013-01-20 10:40:00,47.0,39.0,29.15,West,270,18.0,23.0,74,0.00,,,0.05,Rainwise IP-100,2013-01-20 15:40:00,
2013-01-20 10:45:00,47.0,39.0,29.15,WSW,247,19.0,20.0,74,0.00,,,0.05,Rainwise IP-100,2013-01-20 15:45:00,
2013-01-20 10:50:00,47.0,38.0,29.15,WSW,247,20.0,20.0,73,0.00,,,0.05,Rainwise IP-100,2013-01-20 15:50:00,
2013-01-20 10:55:00,47.0,38.0,29.14,SW,225,20.0,25.0,72,0.00,,,0.05,Rainwise IP-100,2013-01-20 15:55:00,
2013-01-20 11:00:00,47.0,38.0,29.14,SW,225,14.0,25.0,72,0.00,,,0.05,Rainwise IP-100,2013-01-20 16:00:00,
2013-01-20 11:05:00,47.0,37.0,29.13,WSW,247,13.0,32.0,70,0.00,,,0.05,Rainwise IP-100,2013-01-20 16:05:00,
2013-01-20 11:10:00,47.0,37.0,29.13,SSW,202,10.0,21.0,70,0.00,,,0.05,Rainwise IP-100,2013-01-20 16:10:00,
2013-01-20 11:15:00,47.0,37.0,29.12,WSW,247,19.0,19.0,70,0.00,,,0.05,Rainwise IP-100,2013-01-20 16:15:00,
2013-01-20 11:20:00,47.0,37.0,29.12,West,270,10.0,34.0,69,0.00,,,0.05,Rainwise IP-100,2013-01-20 16:20:00,
2013-01-20 11:22:00,47.0,37.0,29.12,West,270,10.0,34.0,69,0.00,,,0.05,Rainwise IP-100,2013-01-20 16:22:00,
2013-01-20 11:30:00,48.0,38.0,29.11,WSW,247,16.0,26.0,67,0.00,,,0.05,Rainwise IP-100,2013-01-20 16:30:00,
2013-01-20 11:35:00,48.0,38.0,29.11,SW,225,18.0,26.0,67,0.00,,,0.05,Rainwise IP-100,2013-01-20 16:35:00,
2013-01-20 11:40:00,48.0,38.0,29.10,West,270,14.0,26.0,67,0.00,,,0.05,Rainwise IP-100,2013-01-20 16:40:00,
2013-01-20 11:45:00,48.0,38.0,29.10,West,270,14.0,29.0,67,0.00,,,0.05,Rainwise IP-100,2013-01-20 16:45:00,
2013-01-20 11:50:00,48.0,38.0,29.10,SW,225,11.0,33.0,67,0.00,,,0.05,Rainwise IP-100,2013-01-20 16:50:00,
2013-01-20 11:55:00,47.0,36.0,29.10,West,270,18.0,32.0,66,0.00,,,0.05,Rainwise IP-100,2013-01-20 16:55:00,
2013-01-20 12:00:00,47.0,37.0,29.10,West,270,9.0,29.0,68,0.00,,,0.05,Rainwise IP-100,2013-01-20 17:00:00,
2013-01-20 12:03:00,46.0,36.0,29.09,WSW,247,19.0,23.0,69,0.00,,,0.05,Rainwise IP-100,2013-01-20 17:03:00,
2013-01-20 12:08:00,46.0,36.0,29.09,WSW,247,18.0,25.0,69,0.00,,,0.05,Rainwise IP-100,2013-01-20 17:08:00,
2013-01-20 12:34:00,46.0,36.0,29.10,WSW,247,11.0,20.0,69,0.00,,,0.05,Rainwise IP-100,2013-01-20 17:34:00,
2013-01-20 12:39:00,46.0,36.0,29.10,SW,225,17.0,20.0,69,0.00,,,0.05,Rainwise IP-100,2013-01-20 17:39:00,
2013-01-20 12:44:00,46.0,36.0,29.08,WSW,247,10.0,25.0,69,0.00,,,0.05,Rainwise IP-100,2013-01-20 17:44:00,
2013-01-20 12:52:00,46.0,36.0,29.09,SW,225,9.0,10.0,69,0.00,,,0.05,Rainwise IP-100,2013-01-20 17:52:00,
2013-01-20 12:57:00,46.0,36.0,29.09,West,270,11.0,18.0,69,0.00,,,0.05,Rainwise IP-100,2013-01-20 17:57:00,
2013-01-20 13:00:00,46.0,36.0,29.09,West,270,11.0,18.0,69,0.00,,,0.05,Rainwise IP-100,2013-01-20 18:00:00,
2013-01-20 13:05:00,46.0,36.0,29.09,West,270,15.0,15.0,68,0.00,,,0.05,Rainwise IP-100,2013-01-20 18:05:00,
2013-01-20 13:11:00,47.0,35.0,29.10,West,270,12.0,15.0,64,0.00,,,0.05,Rainwise IP-100,2013-01-20 18:11:00,
2013-01-20 13:19:00,46.0,35.0,29.10,WSW,247,13.0,27.0,64,0.00,,,0.05,Rainwise IP-100,2013-01-20 18:19:00,
2013-01-20 13:24:00,46.0,35.0,29.10,SW,225,10.0,19.0,64,0.00,,,0.05,Rainwise IP-100,2013-01-20 18:24:00,
2013-01-20 13:28:00,46.0,35.0,29.10,West,270,12.0,21.0,65,0.00,,,0.05,Rainwise IP-100,2013-01-20 18:28:00,
2013-01-20 14:29:00,46.0,31.0,29.11,West,270,7.0,14.0,55,0.00,,,0.05,Rainwise IP-100,2013-01-20 19:29:00,
2013-01-20 15:06:00,46.0,29.0,29.11,SW,225,6.0,14.0,52,0.00,,,0.05,Rainwise IP-100,2013-01-20 20:06:00,
2013-01-20 15:11:00,46.0,28.0,29.11,West,270,21.0,28.0,48,0.00,,,0.05,Rainwise IP-100,2013-01-20 20:11:00,
2013-01-20 15:16:00,45.0,26.0,29.11,WSW,247,14.0,21.0,47,0.00,,,0.05,Rainwise IP-100,2013-01-20 20:16:00,
2013-01-20 15:21:00,45.0,26.0,29.11,West,270,17.0,19.0,46,0.00,,,0.05,Rainwise IP-100,2013-01-20 20:21:00,
2013-01-20 15:26:00,45.0,28.0,29.11,SW,225,11.0,21.0,49,0.00,,,0.05,Rainwise IP-100,2013-01-20 20:26:00,
2013-01-20 15:31:00,45.0,26.0,29.12,WSW,247,11.0,22.0,47,0.00,,,0.05,Rainwise IP-100,2013-01-20 20:31:00,
2013-01-20 15:36:00,45.0,26.0,29.12,West,270,10.0,14.0,47,0.00,,,0.05,Rainwise IP-100,2013-01-20 20:36:00,
2013-01-20 15:41:00,44.0,26.0,29.12,WSW,247,5.0,18.0,49,0.00,,,0.05,Rainwise IP-100,2013-01-20 20:41:00,
2013-01-20 15:46:00,44.0,26.0,29.13,West,270,15.0,15.0,48,0.00,,,0.05,Rainwise IP-100,2013-01-20 20:46:00,
2013-01-20 15:52:00,44.0,26.0,29.13,WSW,247,12.0,23.0,48,0.00,,,0.05,Rainwise IP-100,2013-01-20 20:52:00,
2013-01-20 15:53:00,44.0,26.0,29.13,West,270,14.0,23.0,48,0.00,,,0.05,Rainwise IP-100,2013-01-20 20:53:00,
2013-01-20 15:57:00,44.0,26.0,29.13,West,270,10.0,18.0,48,0.00,,,0.05,Rainwise IP-100,2013-01-20 20:57:00,
2013-01-20 16:02:00,44.0,26.0,29.13,West,270,11.0,21.0,48,0.00,,,0.05,Rainwise IP-100,2013-01-20 21:02:00,
2013-01-20 16:07:00,44.0,26.0,29.13,WSW,247,10.0,20.0,48,0.00,,,0.05,Rainwise IP-100,2013-01-20 21:07:00,
2013-01-20 16:11:00,44.0,26.0,29.13,WSW,247,8.0,19.0,48,0.00,,,0.05,Rainwise IP-100,2013-01-20 21:11:00,
2013-01-20 16:16:00,43.0,28.0,29.14,West,270,9.0,21.0,52,0.00,,,0.05,Rainwise IP-100,2013-01-20 21:16:00,
2013-01-20 16:21:00,43.0,28.0,29.14,West,270,5.0,12.0,54,0.00,,,0.05,Rainwise IP-100,2013-01-20 21:21:00,
2013-01-20 16:26:00,42.0,29.0,29.16,West,270,5.0,10.0,59,0.00,,,0.05,Rainwise IP-100,2013-01-20 21:26:00,
2013-01-20 16:31:00,42.0,29.0,29.17,West,270,6.0,8.0,61,0.00,,,0.05,Rainwise IP-100,2013-01-20 21:31:00,
2013-01-20 16:36:00,41.0,29.0,29.17,West,270,8.0,12.0,62,0.00,,,0.05,Rainwise IP-100,2013-01-20 21:36:00,
2013-01-20 16:41:00,41.0,29.0,29.17,North,360,5.0,15.0,61,0.00,,,0.05,Rainwise IP-100,2013-01-20 21:41:00,
2013-01-20 16:46:00,41.0,29.0,29.17,West,270,8.0,14.0,62,0.00,,,0.05,Rainwise IP-100,2013-01-20 21:46:00,
2013-01-20 16:52:00,41.0,29.0,29.17,West,270,3.0,12.0,61,0.00,,,0.05,Rainwise IP-100,2013-01-20 21:52:00,
2013-01-20 16:57:00,41.0,29.0,29.16,West,270,5.0,9.0,60,0.00,,,0.05,Rainwise IP-100,2013-01-20 21:57:00,
2013-01-20 17:02:00,40.0,28.0,29.16,North,360,6.0,9.0,61,0.00,,,0.05,Rainwise IP-100,2013-01-20 22:02:00,
2013-01-20 17:07:00,40.0,28.0,29.16,West,270,6.0,15.0,61,0.00,,,0.05,Rainwise IP-100,2013-01-20 22:07:00,
2013-01-20 17:12:00,40.0,28.0,29.16,West,270,4.0,10.0,60,0.00,,,0.05,Rainwise IP-100,2013-01-20 22:12:00,
2013-01-20 17:17:00,40.0,28.0,29.16,West,270,4.0,9.0,60,0.00,,,0.05,Rainwise IP-100,2013-01-20 22:17:00,
2013-01-20 17:21:00,40.0,28.0,29.16,West,270,8.0,9.0,60,0.00,,,0.05,Rainwise IP-100,2013-01-20 22:21:00,
2013-01-20 17:27:00,40.0,28.0,29.17,West,270,5.0,10.0,60,0.00,,,0.05,Rainwise IP-100,2013-01-20 22:27:00,
2013-01-20 17:32:00,40.0,28.0,29.17,West,270,7.0,8.0,59,0.00,,,0.05,Rainwise IP-100,2013-01-20 22:32:00,
2013-01-20 17:37:00,39.0,26.0,29.17,WSW,247,5.0,9.0,59,0.00,,,0.05,Rainwise IP-100,2013-01-20 22:37:00,
2013-01-20 17:42:00,39.0,26.0,29.17,West,270,5.0,9.0,60,0.00,,,0.05,Rainwise IP-100,2013-01-20 22:42:00,
2013-01-20 17:47:00,39.0,28.0,29.18,North,360,4.0,9.0,61,0.00,,,0.05,Rainwise IP-100,2013-01-20 22:47:00,
2013-01-20 17:52:00,39.0,28.0,29.18,West,270,4.0,7.0,61,0.00,,,0.05,Rainwise IP-100,2013-01-20 22:52:00,
2013-01-20 17:57:00,39.0,28.0,29.19,West,270,5.0,11.0,61,0.00,,,0.05,Rainwise IP-100,2013-01-20 22:57:00,
2013-01-20 18:02:00,39.0,28.0,29.19,West,270,7.0,8.0,61,0.00,,,0.05,Rainwise IP-100,2013-01-20 23:02:00,
2013-01-20 18:06:00,39.0,26.0,29.19,West,270,8.0,11.0,59,0.00,,,0.05,Rainwise IP-100,2013-01-20 23:06:00,
2013-01-20 18:11:00,39.0,26.0,29.19,West,270,10.0,15.0,57,0.00,,,0.05,Rainwise IP-100,2013-01-20 23:11:00,
2013-01-20 18:16:00,39.0,26.0,29.20,West,270,7.0,15.0,57,0.00,,,0.05,Rainwise IP-100,2013-01-20 23:16:00,
2013-01-20 18:21:00,39.0,23.0,29.20,North,360,8.0,12.0,51,0.00,,,0.05,Rainwise IP-100,2013-01-20 23:21:00,
2013-01-20 18:26:00,39.0,23.0,29.20,WSW,247,4.0,17.0,50,0.00,,,0.05,Rainwise IP-100,2013-01-20 23:26:00,
2013-01-20 18:31:00,38.0,21.0,29.20,WSW,247,6.0,16.0,49,0.00,,,0.05,Rainwise IP-100,2013-01-20 23:31:00,
2013-01-20 18:36:00,38.0,21.0,29.22,North,360,6.0,11.0,49,0.00,,,0.05,Rainwise IP-100,2013-01-20 23:36:00,
2013-01-20 18:37:00,38.0,21.0,29.22,North,360,4.0,11.0,49,0.00,,,0.05,Rainwise IP-100,2013-01-20 23:37:00,
2013-01-20 18:42:00,38.0,18.0,29.23,West,270,6.0,16.0,45,0.00,,,0.05,Rainwise IP-100,2013-01-20 23:42:00,
2013-01-20 18:47:00,38.0,18.0,29.23,West,270,17.0,17.0,45,0.00,,,0.05,Rainwise IP-100,2013-01-20 23:47:00,
2013-01-20 18:52:00,38.0,18.0,29.22,West,270,22.0,24.0,42,0.00,,,0.05,Rainwise IP-100,2013-01-20 23:52:00,
2013-01-20 18:57:00,38.0,18.0,29.22,West,270,8.0,23.0,43,0.00,,,0.05,Rainwise IP-100,2013-01-20 23:57:00,
2013-01-20 19:02:00,38.0,18.0,29.23,West,270,9.0,17.0,42,0.00,,,0.05,Rainwise IP-100,2013-01-21 00:02:00,
2013-01-20 19:06:00,37.0,16.0,29.23,West,270,11.0,22.0,43,0.00,,,0.05,Rainwise IP-100,2013-01-21 00:06:00,
2013-01-20 19:11:00,37.0,16.0,29.23,West,270,18.0,18.0,43,0.00,,,0.05,Rainwise IP-100,2013-01-21 00:11:00,
2013-01-20 19:16:00,37.0,16.0,29.23,West,270,15.0,21.0,43,0.00,,,0.05,Rainwise IP-100,2013-01-21 00:16:00,
2013-01-20 19:21:00,37.0,16.0,29.23,North,360,6.0,17.0,43,0.00,,,0.05,Rainwise IP-100,2013-01-21 00:21:00,
2013-01-20 19:26:00,36.0,16.0,29.23,West,270,12.0,29.0,42,0.00,,,0.05,Rainwise IP-100,2013-01-21 00:26:00,
2013-01-20 19:31:00,36.0,16.0,29.25,West,270,9.0,21.0,42,0.00,,,0.05,Rainwise IP-100,2013-01-21 00:31:00,
2013-01-20 19:36:00,36.0,16.0,29.25,WSW,247,8.0,16.0,44,0.00,,,0.05,Rainwise IP-100,2013-01-21 00:36:00,
2013-01-20 19:41:00,36.0,16.0,29.26,North,360,7.0,15.0,45,0.00,,,0.05,Rainwise IP-100,2013-01-21 00:41:00,
2013-01-20 19:47:00,35.0,16.0,29.26,NE,45,3.0,17.0,44,0.00,,,0.05,Rainwise IP-100,2013-01-21 00:47:00,
2013-01-20 19:52:00,35.0,16.0,29.26,SW,225,5.0,22.0,44,0.00,,,0.05,Rainwise IP-100,2013-01-21 00:52:00,
2013-01-20 19:57:00,34.0,16.0,29.26,WSW,247,7.0,19.0,46,0.00,,,0.05,Rainwise IP-100,2013-01-21 00:57:00,
2013-01-20 20:01:00,35.0,16.0,29.25,West,270,6.0,22.0,44,0.00,,,0.05,Rainwise IP-100,2013-01-21 01:01:00,
2013-01-20 20:02:00,35.0,16.0,29.25,West,270,15.0,22.0,44,0.00,,,0.05,Rainwise IP-100,2013-01-21 01:02:00,
2013-01-20 20:07:00,34.0,16.0,29.25,West,270,9.0,16.0,45,0.00,,,0.05,Rainwise IP-100,2013-01-21 01:07:00,
2013-01-20 20:12:00,34.0,16.0,29.25,West,270,6.0,16.0,44,0.00,,,0.05,Rainwise IP-100,2013-01-21 01:12:00,
2013-01-20 20:17:00,34.0,16.0,29.25,SSW,202,3.0,14.0,46,0.00,,,0.05,Rainwise IP-100,2013-01-21 01:17:00,
2013-01-20 20:22:00,34.0,14.0,29.26,SW,225,13.0,19.0,42,0.00,,,0.05,Rainwise IP-100,2013-01-21 01:22:00,
2013-01-20 20:27:00,33.0,14.0,29.26,West,270,6.0,26.0,40,0.00,,,0.05,Rainwise IP-100,2013-01-21 01:27:00,
2013-01-20 20:32:00,33.0,14.0,29.27,West,270,12.0,16.0,41,0.00,,,0.05,Rainwise IP-100,2013-01-21 01:32:00,
2013-01-20 20:37:00,33.0,14.0,29.27,NNE,22,4.0,16.0,41,0.00,,,0.05,Rainwise IP-100,2013-01-21 01:37:00,
2013-01-20 20:41:00,33.0,14.0,29.27,West,270,5.0,18.0,41,0.00,,,0.05,Rainwise IP-100,2013-01-21 01:41:00,
2013-01-20 20:47:00,32.0,14.0,29.27,WSW,247,3.0,17.0,43,0.00,,,0.05,Rainwise IP-100,2013-01-21 01:47:00,
2013-01-20 20:52:00,32.0,14.0,29.27,West,270,4.0,18.0,42,0.00,,,0.05,Rainwise IP-100,2013-01-21 01:52:00,
2013-01-20 20:57:00,32.0,14.0,29.27,West,270,10.0,15.0,46,0.00,,,0.05,Rainwise IP-100,2013-01-21 01:57:00,
2013-01-20 21:02:00,32.0,14.0,29.29,North,360,2.0,11.0,45,0.00,,,0.05,Rainwise IP-100,2013-01-21 02:02:00,
2013-01-20 21:07:00,32.0,14.0,29.29,North,360,11.0,16.0,43,0.00,,,0.05,Rainwise IP-100,2013-01-21 02:07:00,
2013-01-20 21:12:00,32.0,14.0,29.30,West,270,10.0,19.0,43,0.00,,,0.05,Rainwise IP-100,2013-01-21 02:12:00,
2013-01-20 21:17:00,31.0,14.0,29.30,North,360,5.0,18.0,45,0.00,,,0.05,Rainwise IP-100,2013-01-21 02:17:00,
2013-01-20 21:22:00,31.0,14.0,29.30,West,270,3.0,13.0,47,0.00,,,0.05,Rainwise IP-100,2013-01-21 02:22:00,
2013-01-20 21:27:00,30.0,14.0,29.30,North,360,4.0,19.0,48,0.00,,,0.05,Rainwise IP-100,2013-01-21 02:27:00,
2013-01-20 21:31:00,30.0,16.0,29.31,NE,45,4.0,18.0,50,0.00,,,0.05,Rainwise IP-100,2013-01-21 02:31:00,
2013-01-20 21:36:00,30.0,16.0,29.31,North,360,4.0,12.0,55,0.00,,,0.05,Rainwise IP-100,2013-01-21 02:36:00,
2013-01-20 21:37:00,30.0,16.0,29.31,West,270,4.0,12.0,55,0.00,,,0.05,Rainwise IP-100,2013-01-21 02:37:00,
2013-01-20 21:42:00,29.0,16.0,29.31,East,90,2.0,15.0,59,0.00,,,0.05,Rainwise IP-100,2013-01-21 02:42:00,
2013-01-20 21:47:00,28.0,16.0,29.31,ESE,112,2.0,22.0,62,0.00,,,0.05,Rainwise IP-100,2013-01-21 02:47:00,
2013-01-20 21:52:00,28.0,16.0,29.32,West,270,6.0,13.0,62,0.00,,,0.05,Rainwise IP-100,2013-01-21 02:52:00,
2013-01-20 21:57:00,28.0,16.0,29.32,NNE,22,10.0,15.0,63,0.00,,,0.05,Rainwise IP-100,2013-01-21 02:57:00,
2013-01-20 22:02:00,27.0,16.0,29.32,West,270,10.0,21.0,63,0.00,,,0.05,Rainwise IP-100,2013-01-21 03:02:00,
2013-01-20 22:07:00,27.0,16.0,29.33,West,270,11.0,13.0,61,0.00,,,0.05,Rainwise IP-100,2013-01-21 03:07:00,
2013-01-20 22:11:00,27.0,16.0,29.34,North,360,4.0,11.0,58,0.00,,,0.05,Rainwise IP-100,2013-01-21 03:11:00,
2013-01-20 22:16:00,27.0,16.0,29.34,North,360,4.0,8.0,58,0.00,,,0.05,Rainwise IP-100,2013-01-21 03:16:00,
2013-01-20 22:21:00,26.0,14.0,29.34,North,360,5.0,9.0,54,0.00,,,0.05,Rainwise IP-100,2013-01-21 03:21:00,
2013-01-20 22:22:00,26.0,14.0,29.34,West,270,3.0,9.0,54,0.00,,,0.05,Rainwise IP-100,2013-01-21 03:22:00,
2013-01-20 22:27:00,26.0,11.0,29.34,North,360,8.0,14.0,52,0.00,,,0.05,Rainwise IP-100,2013-01-21 03:27:00,
2013-01-20 22:32:00,25.0,11.0,29.34,West,270,7.0,16.0,52,0.00,,,0.05,Rainwise IP-100,2013-01-21 03:32:00,
2013-01-20 22:37:00,25.0,11.0,29.34,West,270,8.0,16.0,52,0.00,,,0.05,Rainwise IP-100,2013-01-21 03:37:00,
2013-01-20 22:42:00,25.0,11.0,29.34,West,270,8.0,16.0,52,0.00,,,0.05,Rainwise IP-100,2013-01-21 03:42:00,
2013-01-20 22:47:00,25.0,11.0,29.34,West,270,11.0,16.0,52,0.00,,,0.05,Rainwise IP-100,2013-01-21 03:47:00,
2013-01-20 22:51:00,24.0,8.0,29.35,West,270,7.0,16.0,48,0.00,,,0.05,Rainwise IP-100,2013-01-21 03:51:00,
2013-01-20 22:57:00,24.0,8.0,29.35,North,360,5.0,11.0,48,0.00,,,0.05,Rainwise IP-100,2013-01-21 03:57:00,
2013-01-20 23:02:00,24.0,8.0,29.35,West,270,9.0,11.0,48,0.00,,,0.05,Rainwise IP-100,2013-01-21 04:02:00,
2013-01-20 23:07:00,23.0,8.0,29.36,West,270,8.0,14.0,49,0.00,,,0.05,Rainwise IP-100,2013-01-21 04:07:00,
2013-01-20 23:11:00,23.0,8.0,29.36,West,270,10.0,14.0,49,0.00,,,0.05,Rainwise IP-100,2013-01-21 04:11:00,
2013-01-20 23:49:00,21.0,8.0,29.37,West,270,7.0,0.0,51,0.00,,,0.05,Rainwise IP-100,2013-01-21 04:49:00,